x

8770570 - Sabine Pass North, Tx (sbpt2) Weather Station

5:18am - Tue 12th Dec 2017 All times are CST. -6 hours from GMT.

  • Wind
    7mph, 14mph gusts
  • Sea Temp 58°f
  • Air Temp 51°f
  • Sea Pressure 1024mb
  • 8770570 - Sabine Pass North, Tx
  • 8770570 - Sabine Pass North, Tx

More Historic Weather Station data

Upgrade to MSW Pro to gain access to the past 30 days of data for over 8000 Wavebouys and Weather Stations around the globe.

Join

Comparision Forecast

View Surf forecast
   
Tue 12/12 5:18am 7 14 mph 1024mb 58f 51f
5:12am 8 13 mph 1023.9mb 58f 51f
5:06am 9 14 mph 1023.9mb 58f 50f
5:00am 6 10 mph 1023.8mb 58f 48f
4:54am 6 11 mph 1023.5mb 58f 48f
4:48am 6 10 mph 1023.4mb 58f 48f
4:42am 6 10 mph 1023.4mb 58f 49f
4:36am 7 11 mph 1023.5mb 58f 49f
4:30am 7 10 mph 1023.4mb 58f 48f
4:24am 7 10 mph 1023.3mb 58f 48f
4:18am 5 7 mph 1023.4mb 58f 48f
4:12am 5 7 mph 1023.4mb 58f 48f
4:06am 5 9 mph 1023.2mb 58f 49f
4:00am 6 9 mph 1023.2mb 58f 49f
3:54am 6 9 mph 1023.2mb 58f 49f
3:48am 3 8 mph 1023.1mb 58f 49f
3:42am 5 10 mph 1023.1mb 58f 49f
3:36am 6 11 mph 1023mb 58f 50f
3:30am 5 9 mph 1022.8mb 58f 50f
3:24am 6 9 mph 1022.9mb 58f 50f
3:18am 5 10 mph 1022.5mb 58f 51f
3:12am 5 11 mph 1022.6mb 58f 51f
3:06am 6 10 mph 1022.6mb 58f 51f
3:00am 7 14 mph 1022.6mb 57f 51f
2:54am 7 11 mph 1022.6mb 57f 50f
2:48am 7 11 mph 1022.6mb 57f 51f
2:42am 6 11 mph 1022.5mb 57f 51f
2:36am 8 14 mph 1022.5mb 57f 51f
2:30am 7 14 mph 1022.5mb 57f 51f
2:24am 6 13 mph 1022.5mb 57f 51f
2:18am 6 11 mph 1022.5mb 57f 51f
2:12am 7 15 mph 1022.5mb 57f 52f
2:06am 8 14 mph 1022.5mb 57f 52f
2:00am 7 13 mph 1022.4mb 57f 52f
1:54am 6 15 mph 1022.4mb 57f 52f
1:48am 7 14 mph 1022.4mb 57f 52f
1:42am 8 15 mph 1022.4mb 57f 53f
1:36am 8 14 mph 1022.3mb 57f 53f
1:30am 8 13 mph 1022.4mb 57f 52f
1:24am 7 11 mph 1022.4mb 57f 52f
1:18am 6 14 mph 1022.5mb 57f 53f
1:12am 7 14 mph 1022.5mb 57f 53f
1:06am 8 14 mph 1022.6mb 57f 53f
1:00am 8 15 mph 1022.6mb 57f 54f
12:54am 9 17 mph 1022.6mb 57f 54f
12:48am 10 16 mph 1022.6mb 57f -
12:42am 8 16 mph 1022.5mb 57f -
12:36am 8 14 mph 1022.6mb 57f -
12:30am 8 15 mph 1022.5mb 57f 54f
12:24am 8 16 mph 1022.5mb 57f 54f
12:18am 9 14 mph 1022.6mb 57f 54f
12:12am 6 14 mph 1022.6mb 57f 54f
12:06am 8 14 mph 1022.5mb 57f 54f
12:00am 8 14 mph 1022.5mb 57f 54f
Mon 12/11 11:54pm 7 14 mph 1022.5mb 57f 54f
11:48pm 7 14 mph 1022.6mb 57f 55f
11:42pm 9 15 mph 1022.6mb 57f 55f
11:36pm 7 11 mph 1022.5mb 57f 55f
11:30pm 6 9 mph 1022.5mb 57f 55f
11:24pm 3 8 mph 1022.6mb 57f 55f
11:18pm 5 9 mph 1022.8mb 57f 55f
11:12pm 6 10 mph 1022.9mb 57f 56f
11:06pm 6 11 mph 1023mb 57f 56f
11:00pm 6 10 mph 1023mb 57f 56f
10:54pm 6 13 mph 1023.3mb 57f 56f
10:48pm 7 11 mph 1023.2mb 57f 57f
10:42pm 6 10 mph 1023.3mb 57f 57f
10:36pm 7 10 mph 1023.4mb 57f 57f
10:30pm 6 8 mph 1023.5mb 57f 57f
10:24pm 3 7 mph 1023.6mb 57f 57f
10:18pm 3 6 mph 1023.6mb 57f 56f
10:12pm 3 8 mph 1023.5mb 57f 56f
10:06pm 3 7 mph 1023.5mb 57f 56f
10:00pm 3 8 mph 1023.5mb 57f 56f
9:54pm 5 8 mph 1023.5mb 57f 56f
9:48pm 5 7 mph 1023.6mb 57f 55f
9:42pm 5 10 mph 1023.5mb 57f 56f
9:36pm 7 9 mph 1023.5mb 57f 56f
9:30pm 6 10 mph 1023.5mb 57f 56f
9:24pm 6 8 mph 1023.5mb 57f 56f
9:18pm 5 8 mph 1023.5mb 57f 56f
9:12pm 5 8 mph 1023.5mb 57f 56f
9:06pm 6 9 mph 1023.5mb 57f 56f
9:00pm 6 9 mph 1023.6mb 57f 56f
8:48pm 2 6 mph 1023.5mb 57f 56f
8:42pm 3 6 mph 1023.6mb 57f 56f
8:36pm 5 9 mph 1023.6mb 57f 57f
8:30pm 7 10 mph 1023.5mb 57f 57f
8:24pm 6 10 mph 1023.6mb 57f 57f
8:18pm 7 10 mph 1023.6mb 57f 56f
8:12pm 6 9 mph 1023.7mb 57f 56f
8:06pm 5 8 mph 1023.7mb 57f 56f
8:00pm 5 9 mph 1023.6mb 57f 56f
7:54pm 6 8 mph 1023.6mb 57f 56f
7:48pm 5 8 mph 1023.5mb 57f 56f
7:42pm 5 8 mph 1023.5mb 57f 55f
7:36pm 3 8 mph 1023.4mb 57f 55f
7:30pm 3 7 mph 1023.5mb 57f 55f
7:24pm 5 8 mph 1023.6mb 57f 55f
7:18pm 3 6 mph - - -
7:12pm 3 8 mph 1023.7mb 57f 55f
7:06pm 6 8 mph 1023.6mb 57f 55f
7:00pm 5 7 mph 1023.5mb 57f 55f
6:54pm 2 6 mph 1023.4mb 57f 54f
6:48pm 3 7 mph 1023.4mb 57f 55f
6:42pm 3 7 mph 1023.4mb 57f 54f
6:36pm 3 6 mph 1023.4mb 57f 55f
6:30pm 5 6 mph 1023.3mb 58f 55f
6:24pm 6 7 mph 1023.2mb 58f 55f
6:18pm 5 7 mph - - -
6:12pm 3 8 mph 1023.2mb 58f -
6:06pm 6 8 mph 1023.1mb 58f -
6:00pm 5 7 mph 1023.1mb 58f 55f
5:54pm 3 6 mph 1023.1mb 58f 55f
5:48pm 3 8 mph 1023.1mb 58f 56f
5:42pm 5 9 mph 1023.1mb 58f 56f
5:36pm 6 8 mph 1023.1mb 58f 56f
5:30pm 3 8 mph 1023.1mb 58f 56f
5:24pm 5 7 mph 1023.1mb 58f 57f
5:18pm 3 8 mph 1023.1mb 58f 57f
5:12pm 5 8 mph 1023.1mb 58f 58f
5:06pm 6 10 mph 1023.1mb 58f 58f
5:00pm 6 9 mph 1023.2mb 58f 59f
4:54pm 6 11 mph 1023.2mb 58f 59f
4:48pm 7 11 mph 1023.2mb 58f 60f
4:42pm 7 11 mph 1023.2mb 58f 60f
4:36pm 8 11 mph 1023.3mb 58f 61f
4:30pm 7 15 mph 1023.3mb 58f 61f
4:24pm 8 14 mph 1023.4mb 58f 62f
4:18pm 8 15 mph 1023.4mb 58f 62f
4:12pm 9 14 mph 1023.4mb 58f 62f
4:06pm 8 14 mph 1023.4mb 58f 62f
4:00pm 9 15 mph 1023.4mb 58f 63f
3:54pm 8 14 mph 1023.4mb 58f 63f
3:48pm 8 16 mph 1023.5mb 58f 63f
3:42pm 10 16 mph 1023.5mb 58f 63f
3:36pm 9 16 mph 1023.5mb 58f 63f
3:30pm 10 15 mph 1023.4mb 58f 63f
3:24pm 9 15 mph 1023.4mb 58f 64f
3:18pm 9 14 mph 1023.4mb 58f 64f
3:12pm 9 13 mph 1023.4mb 58f 64f
3:06pm 8 14 mph 1023.5mb 58f 64f
3:00pm 8 14 mph 1023.5mb 58f 64f
2:54pm 7 16 mph 1023.6mb 58f 64f
2:48pm 7 16 mph 1023.7mb 58f 64f
2:42pm 9 14 mph 1023.8mb 58f 64f
2:36pm 8 14 mph 1024mb 58f 64f
2:30pm 8 14 mph 1024mb 58f 64f
2:24pm 8 14 mph 1024mb 58f 64f
2:18pm 8 13 mph 1024.1mb 58f 64f
2:12pm 9 14 mph 1024mb 58f 64f
2:06pm 9 16 mph 1024mb 58f 64f
2:00pm 9 14 mph 1024.1mb 58f 64f
1:54pm 8 15 mph 1024.2mb 58f 64f
1:48pm 8 14 mph 1024.3mb 58f 64f
1:42pm 9 15 mph 1024.4mb 58f 64f
1:36pm 8 15 mph 1024.5mb 58f 64f
1:30pm 9 14 mph 1024.6mb 58f 64f
1:24pm 7 14 mph 1024.7mb 58f 64f
1:18pm 9 15 mph 1024.9mb 58f 65f
1:12pm 8 14 mph 1025mb 58f 65f
1:06pm 8 14 mph 1025.1mb 58f 66f
1:00pm 8 11 mph 1025.1mb 58f 65f
12:54pm 8 11 mph 1025.3mb 58f 65f
12:48pm 7 11 mph 1025.4mb 58f 66f
12:42pm 6 11 mph 1025.6mb 58f 66f
12:36pm 8 11 mph 1025.7mb 58f 66f
12:30pm 7 11 mph 1025.7mb 58f 66f
12:24pm 7 11 mph 1025.8mb 58f 66f
12:18pm 10 14 mph 1025.9mb 58f 66f
12:12pm 7 11 mph 1026mb 58f 67f
12:06pm 9 14 mph 1026.2mb 58f 67f
12:00pm 6 9 mph 1026.4mb 58f 68f
11:54am 5 8 mph 1026.4mb 58f 69f
11:48am 7 9 mph 1026.5mb 58f 67f
11:42am 6 9 mph 1026.6mb 58f 67f
11:36am 7 10 mph 1026.8mb 58f 67f
11:30am 5 8 mph 1026.9mb 58f 67f
11:24am 5 9 mph 1027mb 58f 67f
11:18am 3 9 mph 1027mb 58f 67f
11:12am 3 8 mph 1027.1mb 58f 66f
11:06am 5 8 mph 1027.3mb 58f 66f
11:00am 6 10 mph 1027.2mb 58f 65f
10:54am 6 9 mph 1027.3mb 58f 64f
10:48am 7 11 mph 1027.3mb 58f 64f
10:42am 5 10 mph 1027.5mb 58f 64f
10:36am 6 13 mph 1027.5mb 58f 63f
10:30am 6 10 mph 1027.6mb 58f 62f
10:24am 7 10 mph 1027.7mb 58f 62f
10:18am 5 10 mph 1027.7mb 58f 62f
10:12am 6 11 mph 1027.7mb 58f 61f
10:06am 3 11 mph 1027.8mb 58f 60f
10:00am 5 11 mph 1027.8mb 58f 60f
9:54am 6 10 mph 1027.9mb 58f 59f
9:48am 6 10 mph 1027.8mb 58f 58f
9:42am 6 9 mph 1027.9mb 58f 58f
9:36am 7 11 mph 1028mb 58f 56f
9:30am 5 11 mph 1028mb 58f 56f
9:24am 6 10 mph 1028mb 58f 56f
9:18am 7 14 mph 1028.2mb 58f 56f
9:12am 5 9 mph 1028.2mb 58f 56f
9:06am 5 11 mph 1028.2mb 58f 56f
9:00am 5 10 mph 1028.2mb 58f 55f
8:54am 6 10 mph 1028.2mb 58f 54f
8:48am 5 10 mph 1028.3mb 58f 54f
8:42am 6 10 mph 1028.4mb 58f 53f
8:36am 6 9 mph 1028.4mb 58f 52f
8:30am 5 9 mph 1028.5mb 58f 51f
8:24am 6 11 mph 1028.5mb 58f 51f
8:18am 5 9 mph 1028.6mb 58f 50f
8:12am 3 9 mph 1028.6mb 58f 50f
8:06am 5 9 mph 1028.6mb 58f 49f
8:00am 3 8 mph 1028.6mb 58f 49f
7:54am 3 9 mph 1028.6mb 58f 48f
7:48am 3 7 mph 1028.7mb 58f 48f
7:42am 5 7 mph 1028.7mb 58f 47f
7:36am 3 8 mph 1028.7mb 58f 47f
7:30am 2 7 mph 1028.6mb 58f 46f
7:24am 2 6 mph 1028.7mb 58f 46f
7:18am 2 8 mph 1028.7mb 58f 46f
7:12am 5 7 mph 1028.7mb 58f 46f
7:06am 3 9 mph 1028.6mb 58f 45f
7:00am 6 10 mph 1028.7mb 58f 46f
6:48am 5 10 mph 1028.7mb 58f 46f
6:42am 6 11 mph 1028.7mb 58f 46f
6:36am 7 11 mph 1028.6mb 58f 46f
6:30am 6 11 mph 1028.6mb 58f 45f
6:24am 6 11 mph 1028.6mb 58f 45f
6:18am 3 8 mph 1028.5mb 58f 44f
6:12am 5 10 mph 1028.5mb 58f 45f
6:06am 6 10 mph 1028.5mb 58f 45f
6:00am 5 13 mph 1028.4mb 58f 45f
5:54am 5 10 mph 1028.3mb 58f 45f
5:48am 6 10 mph 1028.2mb 58f 45f
5:42am 6 9 mph 1028.1mb 58f 46f
5:36am 5 11 mph 1028.1mb 58f 46f
5:30am 7 13 mph 1028.1mb 58f 46f
5:24am 7 11 mph 1028.2mb 58f 46f
5:18am 6 10 mph 1028.1mb 58f 46f
5:12am 6 10 mph 1028.1mb 57f 47f
5:06am 5 9 mph 1028mb 57f 47f
5:00am 5 8 mph 1028.1mb 57f 47f
4:54am 5 8 mph 1027.9mb 57f 48f
4:48am 5 8 mph 1027.8mb 57f 48f
4:42am 5 9 mph 1027.8mb 57f 48f
4:36am 3 8 mph 1027.8mb 57f 47f
4:30am 5 6 mph 1027.9mb 57f 46f
4:24am 3 8 mph 1027.9mb 57f 47f
4:18am 3 7 mph 1027.9mb 57f 47f
4:12am 5 7 mph 1028mb 57f 48f
4:06am 5 9 mph 1028.1mb 57f 49f
4:00am 5 9 mph 1028.2mb 57f 48f
3:54am 5 8 mph 1028.2mb 57f 49f
3:48am 6 8 mph 1028.3mb 57f 49f
3:42am 5 9 mph 1028.2mb 57f 48f
3:36am 5 9 mph 1028.2mb 57f 47f
3:30am 5 9 mph 1028.4mb 56f 47f
3:24am 5 9 mph 1028.4mb 56f 48f
3:18am 5 8 mph 1028.4mb 56f 47f
3:12am 3 8 mph 1028.4mb 56f 47f
3:06am 3 7 mph 1028.4mb 56f 48f
3:00am 3 7 mph 1028.5mb 56f 47f
2:54am 5 11 mph 1028.6mb 56f 48f
2:48am 7 11 mph 1028.7mb 56f 48f
2:42am 7 11 mph 1028.8mb 56f 48f
2:36am 8 13 mph 1028.9mb 56f 48f
2:30am 8 14 mph 1028.9mb 56f 48f
2:24am 7 14 mph 1028.9mb 56f 48f
2:18am 7 11 mph 1028.9mb 56f 48f
2:12am 8 14 mph 1028.8mb 56f 48f
2:06am 7 11 mph 1028.8mb 56f 48f
2:00am 7 11 mph 1028.8mb 56f 48f
1:54am 5 11 mph 1028.8mb 56f 47f
1:48am 6 11 mph 1028.8mb 56f 48f
1:42am 6 10 mph 1028.8mb 56f 48f
1:36am 6 10 mph 1028.7mb 56f 48f
1:30am 6 10 mph 1028.6mb 56f 48f
1:24am 5 9 mph 1028.6mb 56f 48f
1:18am 5 9 mph 1028.6mb 56f 48f
1:12am 7 11 mph 1028.6mb 56f 48f
1:06am 6 10 mph 1028.7mb 56f 48f
1:00am 5 8 mph 1028.6mb 56f 49f
12:54am 5 9 mph 1028.6mb 56f 49f
12:48am 5 8 mph 1028.6mb - -
12:42am 5 9 mph 1028.6mb - -
12:36am 5 8 mph 1028.7mb - -
12:30am 5 9 mph 1028.7mb 56f 49f
12:24am 5 9 mph 1028.7mb 56f 49f
12:18am 6 8 mph 1028.8mb 56f 49f
12:12am 5 8 mph 1028.8mb 56f 49f
12:06am 5 9 mph 1028.8mb 56f 50f
12:00am 5 8 mph 1028.8mb 56f 50f
Sun 12/10 11:54pm 6 10 mph 1028.9mb 56f 51f
11:48pm 5 10 mph 1029mb 56f 50f
11:42pm 6 9 mph 1029.1mb 56f 50f
11:36pm 6 11 mph 1029.1mb 55f 51f
11:30pm 6 9 mph 1029.3mb 55f 50f
11:24pm 6 9 mph 1029.4mb 55f 50f
11:18pm 6 9 mph 1029.4mb 55f 51f
11:12pm 6 11 mph 1029.5mb 55f 51f
11:06pm 3 8 mph 1029.6mb 55f 49f
11:00pm 5 8 mph 1029.7mb 55f 50f
10:54pm 5 10 mph 1029.8mb 55f 50f
10:48pm 5 8 mph 1029.8mb 55f 50f
10:42pm 6 9 mph 1029.9mb 55f 50f
10:36pm 6 10 mph 1029.8mb 55f 50f
10:30pm 6 9 mph 1029.8mb 55f 50f
10:24pm 6 9 mph 1029.8mb 55f 49f
10:18pm 6 11 mph 1029.8mb 55f 50f
10:12pm 7 10 mph 1029.9mb 55f 50f
10:06pm 6 11 mph 1030mb 55f 50f
10:00pm 7 13 mph 1030.1mb 55f 50f
9:54pm 5 10 mph 1030.1mb 55f 49f
9:48pm 6 11 mph 1030.2mb 55f 50f
9:42pm 6 11 mph 1030.2mb 55f 49f
9:36pm 7 11 mph 1030.2mb 55f 50f
9:30pm 7 10 mph 1030.2mb 56f 50f
9:24pm 6 10 mph 1030.3mb 55f 50f
9:18pm 7 11 mph 1030.2mb 55f 50f
9:12pm 6 10 mph 1030.1mb 55f 50f
9:06pm 6 11 mph 1030.1mb 56f 50f
9:00pm 7 13 mph 1030.1mb 56f 51f
8:54pm 6 11 mph 1030mb 56f 50f
8:48pm 6 10 mph - - -
8:42pm 6 9 mph 1030mb 56f 50f
8:36pm 6 10 mph 1030mb 56f 51f
8:30pm 7 10 mph 1030mb 56f 51f
8:24pm 5 10 mph 1030mb 56f 51f
8:18pm 6 9 mph 1030mb 56f 51f
8:12pm 5 9 mph 1030.1mb 56f 51f
8:06pm 5 10 mph 1030.1mb 56f 52f
8:00pm 6 9 mph 1030.1mb 56f 52f
7:54pm 6 11 mph 1030.2mb 56f 52f
7:48pm 6 9 mph - - -
7:42pm 5 11 mph 1030.1mb 56f 52f
7:36pm 7 10 mph 1030.1mb 56f 53f
7:30pm 6 10 mph 1030.1mb 56f 53f
7:24pm 6 10 mph 1030.2mb 56f 53f
7:18pm 5 8 mph 1030.1mb 56f 53f
7:12pm 5 9 mph 1030mb 56f 53f
7:06pm 3 7 mph 1029.9mb 56f 52f
7:00pm 3 8 mph 1029.8mb 56f 52f
6:54pm 3 8 mph 1029.8mb 56f 51f
6:48pm 3 6 mph - - -
6:42pm 3 7 mph 1029.6mb 56f 51f
6:36pm 5 7 mph 1029.6mb 56f 50f
6:30pm 5 6 mph 1029.6mb 56f 49f
6:24pm 5 6 mph 1029.5mb 56f 49f
6:18pm 3 7 mph 1029.6mb 56f 50f
6:12pm 5 6 mph 1029.7mb 56f 50f
6:06pm 5 8 mph 1029.7mb 56f 50f
6:00pm 3 7 mph 1029.7mb 56f 49f
5:54pm 3 6 mph 1029.7mb 56f 49f
5:48pm 3 7 mph - - -
5:42pm 3 7 mph 1029.8mb 56f 51f
5:36pm 5 8 mph 1029.8mb 56f 51f
5:30pm 6 8 mph 1029.7mb 56f 52f
5:24pm 6 7 mph 1029.6mb 56f 53f
5:18pm 5 8 mph 1029.5mb 56f 53f
5:12pm 5 8 mph 1029.6mb 56f 54f
5:06pm 6 9 mph 1029.6mb 56f 54f
5:00pm 5 9 mph 1029.6mb 56f 55f
4:54pm 5 8 mph 1029.6mb 56f 55f
4:48pm 5 8 mph 1029.6mb - -
4:42pm 5 8 mph 1029.5mb 56f 56f
4:36pm 6 9 mph 1029.5mb 56f 56f
4:30pm 6 11 mph 1029.5mb 56f 57f
4:24pm 8 11 mph 1029.5mb 56f 57f
4:18pm 6 10 mph 1029.6mb 56f 58f
4:12pm 7 11 mph 1029.5mb 56f 58f
4:06pm 8 11 mph 1029.5mb 56f 58f
4:00pm 6 9 mph 1029.6mb 56f 58f
3:54pm 5 9 mph 1029.6mb 56f 58f
3:48pm 7 10 mph 1029.5mb 56f 58f
3:42pm 5 9 mph 1029.6mb 56f 59f
3:36pm 6 10 mph 1029.7mb 56f 59f
3:30pm 6 10 mph 1029.7mb 56f 59f
3:24pm 6 10 mph 1029.6mb 56f 59f
3:18pm 6 11 mph 1029.7mb 56f 59f
3:12pm 8 13 mph 1029.8mb 56f 58f
3:06pm 9 13 mph 1029.8mb 56f 59f
3:00pm 7 10 mph 1029.8mb 56f 59f
2:54pm 7 13 mph 1029.8mb 56f 59f
2:48pm 7 10 mph 1029.8mb 56f 59f
2:42pm 6 11 mph 1029.7mb 56f 59f
2:36pm 6 11 mph 1029.8mb 56f 59f
2:30pm 9 11 mph 1029.8mb 56f 58f
2:24pm 8 11 mph 1029.9mb 56f 59f
2:18pm 9 10 mph 1029.9mb 56f 58f
2:12pm 8 13 mph 1029.9mb 56f 58f
2:06pm 10 13 mph 1029.9mb 56f 57f
2:00pm 8 13 mph 1029.9mb 56f 58f
1:54pm 8 11 mph 1030mb 56f 59f
1:48pm 7 10 mph 1030.1mb 56f 59f
1:42pm 5 7 mph 1030.2mb 56f 60f
1:36pm 3 6 mph 1030.3mb 56f 59f
1:30pm  -  5 mph 1030.3mb 56f 58f
1:24pm 5 5 mph 1030.4mb 56f 58f
1:18pm 5 6 mph 1030.3mb 56f 58f
1:12pm 5 7 mph 1030.4mb 56f 58f
1:06pm 6 6 mph 1030.6mb 56f 58f
1:00pm 5 8 mph 1030.6mb 56f 58f
12:54pm 7 8 mph 1030.7mb 56f 58f
12:48pm 3 7 mph 1030.7mb 56f 58f
12:42pm 6 8 mph 1030.7mb 56f 58f
12:36pm 7 9 mph 1030.7mb 56f 58f
12:30pm 3 6 mph 1030.8mb 56f 58f
12:24pm 5 7 mph 1030.9mb 56f 57f
12:18pm 5 6 mph 1031mb 56f 57f
12:12pm 3 6 mph 1031.2mb 56f 56f
12:06pm 2 3 mph 1031.3mb 56f 57f
12:00pm  -  3 mph 1031.4mb 56f 57f
11:54am  -  1 mph 1031.5mb 56f 60f
11:48am  -  2 mph 1031.6mb 56f 60f
11:42am 1 3 mph 1031.8mb 56f 57f
11:36am 2 2 mph 1031.9mb 56f 58f
11:30am  -  2 mph 1032mb 56f 59f
11:24am 2 2 mph 1032.1mb 56f 58f
11:18am 1 3 mph 1032.2mb 56f 59f
11:12am 2 2 mph 1032.3mb 56f 61f
11:06am 1 2 mph 1032.3mb 56f 61f
11:00am 1 2 mph 1032.4mb 56f 59f
10:54am  -  2 mph 1032.4mb 56f 58f
10:48am 2 2 mph 1032.4mb 56f 57f
10:42am 1 2 mph 1032.3mb 56f 57f
10:36am 1 2 mph 1032.3mb 56f 55f
10:30am 2 3 mph 1032.4mb 56f 54f
10:24am 3 5 mph 1032.4mb 56f 54f
10:18am 3 5 mph 1032.5mb 56f 54f
10:12am 3 6 mph 1032.5mb 56f 53f
10:06am 6 7 mph 1032.5mb 56f 53f
10:00am 5 6 mph 1032.5mb 56f 53f
9:54am 5 6 mph 1032.4mb 56f 52f
9:48am 5 6 mph 1032.5mb 56f 51f
9:42am 5 7 mph 1032.5mb 56f 51f
9:36am 6 7 mph 1032.4mb 56f 51f
9:30am 6 7 mph 1032.3mb 56f 51f
9:24am 6 7 mph 1032.3mb 56f 50f
9:18am 6 7 mph 1032.3mb 56f 50f
9:12am 6 7 mph 1032.3mb 56f 50f
9:06am 6 7 mph 1032.3mb 56f 49f
9:00am 6 6 mph 1032.3mb 56f 49f
8:54am 5 7 mph 1032.2mb 56f 49f
8:48am 6 8 mph 1032.1mb 56f 49f
8:42am 7 9 mph 1031.9mb 56f 48f
8:36am 8 9 mph 1031.8mb 56f 47f
8:30am 7 9 mph 1031.8mb 56f 47f
8:24am 7 9 mph 1031.7mb 56f 47f
8:18am 7 8 mph 1031.8mb 56f 47f
8:12am 7 8 mph 1031.7mb 56f 46f
8:06am 7 8 mph 1031.6mb 56f 46f
8:00am 7 9 mph 1031.6mb 56f 46f
7:54am 7 8 mph 1031.5mb 56f 46f
7:48am 6 8 mph 1031.5mb 56f 46f
7:42am 7 9 mph 1031.5mb 56f 45f
7:36am 7 9 mph 1031.5mb 56f 45f
7:30am 8 9 mph 1031.4mb 56f 45f
7:24am 8 9 mph 1031.3mb 56f 45f
7:18am 7 9 mph 1031.3mb 56f 45f
7:12am 8 9 mph 1031.3mb 56f 45f
7:06am 6 8 mph 1031.1mb 56f 45f
7:00am 7 8 mph 1031mb 56f 45f
6:54am 7 9 mph 1030.9mb 56f 45f
6:48am 8 9 mph 1030.8mb 56f 45f
6:42am 7 9 mph 1030.6mb 56f 45f
6:36am 8 9 mph 1030.5mb 56f 45f
6:30am 7 9 mph 1030.4mb 56f 45f
6:24am 8 10 mph 1030.3mb 56f 45f
6:18am 8 9 mph 1030.2mb 56f 45f
6:12am 8 9 mph 1030.2mb 56f 45f
6:06am 8 9 mph 1030.2mb 56f 45f
6:00am 8 9 mph 1030.2mb 56f 45f
5:54am 7 9 mph 1030.2mb 56f 45f
5:48am 8 9 mph 1030mb 56f 45f
5:42am 8 9 mph 1030mb 56f 45f
5:36am 8 10 mph 1030mb 56f 45f
5:30am 8 9 mph 1030mb 56f 45f
5:24am 7 9 mph 1029.8mb 56f 46f
5:18am 8 10 mph 1029.7mb 56f 46f
5:12am 7 9 mph 1029.6mb 56f 46f
5:06am 7 8 mph 1029.6mb 56f 46f
5:00am 7 9 mph 1029.5mb 56f 46f
4:54am 8 9 mph 1029.5mb 56f 46f
4:48am 8 9 mph 1029.6mb 56f 46f
4:42am 7 8 mph 1029.7mb 56f 46f
4:36am 8 9 mph 1029.7mb 56f 47f
4:30am 8 10 mph 1029.7mb 56f 47f
4:24am 8 9 mph 1029.7mb 56f 47f
4:18am 8 10 mph 1029.8mb 56f 47f
4:12am 8 10 mph 1029.8mb 56f 47f
4:06am 9 11 mph 1029.8mb 56f 47f
4:00am 8 10 mph 1029.8mb 56f 47f
3:54am 9 15 mph 1029.7mb 56f 48f
3:48am 9 11 mph 1029.7mb 56f 48f
3:42am 9 11 mph 1029.7mb 56f 48f
3:36am 9 11 mph 1029.7mb 56f 48f
3:30am 9 11 mph 1029.7mb 56f 48f
3:24am 10 11 mph 1029.7mb 56f 48f
3:18am 10 11 mph 1029.6mb 56f 48f
3:12am 10 13 mph 1029.6mb 56f 49f
3:06am 10 13 mph 1029.7mb 56f 49f
3:00am 10 14 mph 1029.7mb 56f 49f
2:54am 11 14 mph 1029.6mb 56f 50f
2:48am 11 14 mph 1029.6mb 56f 50f
2:42am 13 15 mph 1029.6mb 56f 50f
2:36am 13 15 mph 1029.6mb 56f 51f
2:30am 10 16 mph 1029.6mb 56f 52f
2:24am 10 14 mph 1029.5mb 56f 51f
2:18am 11 14 mph 1029.6mb 56f 52f
2:12am 10 15 mph 1029.5mb 55f 52f
2:06am 6 8 mph 1029.5mb 55f 49f
2:00am 6 9 mph 1029.4mb 55f 48f
1:54am 6 9 mph 1029.4mb 55f 49f
1:48am 7 11 mph 1029.5mb 55f 48f
1:42am 7 11 mph 1029.4mb 55f 49f
1:36am 9 14 mph 1029.4mb 55f 49f
1:30am 6 8 mph 1029.5mb 55f 48f
1:24am 2 7 mph 1029.5mb 55f 43f
1:18am 5 8 mph 1029.5mb 55f 43f
1:12am 5 8 mph 1029.5mb 55f 44f
1:06am 6 8 mph 1029.5mb 55f 44f
1:00am 5 8 mph 1029.5mb 55f 44f
12:54am 6 9 mph 1029.4mb 55f 44f
12:48am 7 10 mph 1029.4mb 55f 44f
12:42am 6 10 mph 1029.4mb 55f 44f
12:36am 6 8 mph 1029.4mb 55f 45f
12:30am 6 9 mph 1029.4mb 55f 44f
12:24am 7 8 mph 1029.4mb 55f 44f
12:18am 6 9 mph 1029.4mb 55f 44f
12:12am 5 8 mph 1029.4mb 55f 44f
12:06am 5 8 mph 1029.3mb 55f 45f
12:00am 5 7 mph 1029.3mb 55f 44f
Sat 12/09 11:54pm 5 8 mph 1029.2mb 55f 46f
11:48pm 2 5 mph 1029.2mb 55f -
11:42pm 3 5 mph 1029.2mb 55f -
11:36pm 2 3 mph 1029.2mb 55f -
11:30pm 1 3 mph 1029.2mb 55f 46f
11:24pm  -  5 mph 1029.2mb 55f 47f
11:18pm 1 2 mph 1029.2mb 55f 47f
11:12pm 2 3 mph 1029.1mb 55f 48f
11:06pm  -  2 mph 1029.1mb 55f 48f
11:00pm  -  2 mph 1029mb 55f 48f
10:54pm  -  1 mph 1029mb 56f 48f
10:48pm  -  2 mph 1029mb 56f 47f
10:42pm  -  1 mph 1028.9mb 56f 48f
10:36pm  -  1 mph 1028.9mb 56f 48f
10:30pm  -  2 mph 1028.8mb 56f 48f
10:24pm  -  1 mph 1028.7mb 56f 48f
10:18pm 2 3 mph 1028.6mb 56f 49f
10:12pm 1 2 mph 1028.5mb 56f 49f
10:06pm 2 3 mph 1028.5mb 56f 50f
10:00pm  -  3 mph 1028.4mb 55f 49f
9:54pm  -  2 mph 1028.4mb 55f 50f
9:48pm  -  2 mph 1028.4mb 56f 49f
9:42pm 2 3 mph 1028.4mb 56f 49f
9:36pm 2 6 mph 1028.3mb 56f 49f
9:30pm 3 8 mph 1028.2mb 56f 49f
9:24pm 5 8 mph 1028.2mb 56f 49f
9:18pm 5 6 mph 1028.1mb 56f 50f
9:12pm 2 5 mph 1028mb 56f 50f
9:06pm 5 6 mph 1028mb 56f 49f
9:00pm 5 7 mph 1027.9mb 56f 48f
8:54pm 3 9 mph 1028mb 56f 49f
8:48pm 3 5 mph 1027.9mb 56f 50f
8:42pm 2 5 mph 1027.8mb 56f 50f
8:36pm 3 6 mph 1027.6mb 56f 51f
8:30pm 3 5 mph 1027.6mb 56f 50f
8:24pm 2 5 mph 1027.5mb 56f 51f
8:18pm 3 6 mph 1027.3mb 56f 51f
8:12pm 3 6 mph 1027.3mb 56f 51f
8:06pm 3 6 mph 1027.2mb 56f 51f
8:00pm 5 8 mph 1027.2mb 56f 52f
7:54pm 6 8 mph 1027.2mb 56f 52f
7:48pm 7 9 mph 1027.2mb 56f 52f
7:42pm 7 10 mph 1027.1mb 56f 52f
7:36pm 8 11 mph 1027.1mb 56f 52f
7:30pm 7 10 mph 1027mb 56f 53f
7:24pm 7 11 mph 1026.9mb 56f 53f
7:18pm 7 11 mph - - -
7:12pm 7 10 mph 1026.5mb 56f 53f
7:06pm 7 11 mph 1026.6mb 56f 53f
7:00pm 8 13 mph 1026.6mb 56f 53f
6:54pm 9 13 mph 1026.5mb 56f 53f
6:48pm 7 11 mph 1026.4mb 56f 53f
6:42pm 6 10 mph 1026.2mb 56f 53f
6:36pm 7 10 mph 1026.2mb 56f 53f
6:30pm 7 10 mph 1026.1mb 56f 54f
6:24pm 6 8 mph 1026mb 56f 54f
6:18pm 6 9 mph 1025.9mb 56f 54f
6:12pm 7 9 mph 1025.9mb 56f 54f
6:06pm 6 10 mph 1025.8mb 56f 54f
6:00pm 7 11 mph 1025.7mb 56f 54f
5:54pm 7 10 mph 1025.6mb 56f 55f
5:48pm 5 9 mph 1025.6mb 56f 55f
5:42pm 5 8 mph 1025.5mb 56f 55f
5:36pm 5 9 mph 1025.4mb 57f 55f
5:30pm 6 8 mph 1025.3mb 57f 55f
5:24pm 5 7 mph 1025.2mb 57f 55f
5:18pm 5 7 mph 1025.1mb 57f 55f
5:12pm 5 8 mph 1025mb 57f 55f
5:06pm 3 6 mph 1024.9mb 57f 54f
5:00pm 3 5 mph 1024.8mb 57f 54f
4:54pm 2 6 mph 1024.7mb 57f 55f
4:48pm 3 6 mph 1024.8mb - -
4:42pm 2 8 mph 1024.8mb 57f 55f
4:36pm 3 6 mph 1024.7mb 57f 56f
4:30pm 5 7 mph 1024.6mb 57f 56f
4:24pm 5 8 mph 1024.6mb 57f 57f
4:18pm 3 8 mph 1024.5mb 57f 58f
4:12pm 5 9 mph 1024.4mb 57f 57f
4:06pm 6 9 mph 1024.5mb 57f 57f
4:00pm 6 10 mph 1024.6mb 57f 57f
3:54pm 3 10 mph 1024.4mb 57f 57f
3:48pm 5 9 mph 1024.3mb 57f 57f
3:42pm 6 10 mph 1024.3mb 57f 57f
3:36pm 6 10 mph 1024.3mb 57f 57f
3:30pm 7 11 mph 1024.3mb 57f 57f
3:24pm 5 10 mph 1024.3mb 57f 58f
3:18pm 6 9 mph 1024.3mb 57f 57f
3:12pm 6 14 mph 1024.3mb 57f 57f
3:06pm 7 11 mph 1024.3mb 57f 57f
3:00pm 7 10 mph 1024.4mb 57f 57f
2:54pm 7 11 mph 1024.4mb 57f 57f
2:48pm 8 15 mph 1024.4mb 57f 57f
2:42pm 7 13 mph 1024.3mb 57f 57f
2:36pm 7 13 mph 1024.4mb 57f 57f
2:30pm 7 11 mph 1024.4mb 57f 57f
2:24pm 6 11 mph 1024.4mb 57f 57f
2:18pm 6 10 mph 1024.3mb 57f 57f
2:12pm 8 11 mph 1024.3mb 57f 57f
2:06pm 3 11 mph 1024.3mb 57f 57f
2:00pm 3 11 mph 1024.3mb 57f 57f
1:54pm 5 7 mph 1024.3mb 57f 56f
1:48pm 3 8 mph 1024.4mb 57f 56f
1:42pm 2 6 mph 1024.5mb 57f 56f
1:36pm 5 9 mph 1024.5mb 57f 56f
1:30pm 5 8 mph 1024.6mb 57f 55f
1:24pm 5 8 mph 1024.6mb 57f 55f
1:18pm 5 8 mph 1024.7mb 57f 55f
1:12pm 6 8 mph 1024.8mb 57f 55f
1:06pm 3 7 mph 1024.8mb 57f 55f
1:00pm 5 9 mph 1024.8mb 57f 54f
12:54pm 5 9 mph 1024.9mb 57f 54f
12:48pm 5 7 mph 1025mb 57f 54f
12:42pm 2 8 mph 1025.1mb 57f 54f
12:36pm 3 9 mph 1025.2mb 57f 54f
12:30pm 3 11 mph 1025.4mb 57f 53f
12:24pm 6 10 mph 1025.4mb 57f 53f
12:18pm 6 10 mph 1025.6mb 57f 53f
12:12pm 7 11 mph 1025.7mb 57f 53f
12:06pm 7 10 mph 1025.8mb 57f 53f
12:00pm 6 11 mph 1025.9mb 57f 52f
11:54am 7 11 mph 1025.9mb 57f 52f
11:48am 6 8 mph 1025.9mb 57f 52f
11:42am 7 11 mph 1026.1mb 57f 51f
11:36am 6 11 mph 1026.3mb 57f 51f
11:30am 6 13 mph 1026.4mb 57f 51f
11:24am 6 9 mph 1026.5mb 57f 51f
11:18am 6 10 mph 1026.6mb 57f 50f
11:12am 3 11 mph 1026.7mb 57f 51f
11:06am 7 11 mph 1026.7mb 57f 50f
11:00am 6 9 mph 1026.7mb 57f 50f
10:54am 5 7 mph 1026.8mb 57f 50f
10:48am 3 9 mph 1026.8mb 57f 50f
10:42am 5 9 mph 1026.8mb 57f 49f
10:36am 6 10 mph 1026.8mb 57f 49f
10:30am 5 6 mph 1026.9mb 57f 49f
10:24am 3 7 mph 1026.9mb 57f 49f
10:18am 6 7 mph 1026.9mb 57f 48f
10:12am 5 7 mph 1026.9mb 57f 47f
10:06am 5 8 mph 1026.9mb 57f 48f
10:00am 5 6 mph 1026.9mb 57f 47f
9:54am 3 6 mph 1026.9mb 57f 47f
9:48am 3 5 mph 1026.9mb 57f 47f
9:42am 2 6 mph 1026.8mb 57f 46f
9:36am 5 6 mph 1026.7mb 57f 46f
9:30am 5 6 mph 1026.7mb 57f 45f
9:24am 5 6 mph 1026.7mb 57f 45f
9:18am 3 6 mph 1026.6mb 57f 45f
9:12am 3 6 mph 1026.5mb 57f 45f
9:06am 3 6 mph 1026.5mb 57f 45f
9:00am 5 6 mph 1026.5mb 57f 44f
8:54am 3 6 mph 1026.4mb 57f 44f
8:48am 3 6 mph 1026.3mb 57f 43f
8:42am 2 3 mph 1026.2mb 57f 43f
8:36am 2 5 mph 1026.1mb 57f 43f
8:30am 2 3 mph 1026.1mb 57f 42f
8:24am 3 6 mph 1026mb 57f 41f
8:18am 3 5 mph 1025.9mb 57f 40f
8:12am 3 5 mph 1025.8mb 57f 40f
8:06am 3 6 mph 1025.9mb 57f 40f
8:00am 3 7 mph 1025.9mb 57f 39f
7:54am 3 6 mph 1025.8mb 57f 40f
7:48am 3 7 mph 1025.8mb 57f 39f
7:42am 3 6 mph 1025.8mb 57f 40f
7:36am 5 7 mph 1025.9mb 57f 39f
7:30am 5 6 mph 1025.7mb 57f 38f
7:24am 5 7 mph 1025.7mb 57f 39f
7:18am 5 7 mph 1025.6mb 57f 38f
7:12am 5 7 mph 1025.5mb 57f 38f
7:06am 3 6 mph 1025.5mb 57f 38f
7:00am 3 7 mph 1025.4mb 57f 38f
6:54am 5 6 mph 1025.3mb 57f 38f
6:48am 5 7 mph 1025.3mb 58f 38f
6:42am 3 6 mph 1025.2mb 58f 39f
6:36am 5 6 mph 1025.1mb 58f 39f
6:30am 5 6 mph 1025.1mb 58f 39f
6:24am 5 5 mph 1025mb 58f 39f
6:18am 3 5 mph 1025mb 58f 38f
6:12am 2 5 mph 1025mb 58f 39f
6:06am 3 6 mph 1025mb 58f 40f
6:00am 3 7 mph 1025mb 58f 40f
5:54am 3 6 mph 1024.9mb 58f 40f
5:48am 3 5 mph 1024.9mb 58f 40f
5:42am 2 6 mph 1024.9mb 58f 40f
5:36am 3 6 mph 1024.9mb 58f 39f
5:30am 3 6 mph 1024.8mb 58f 39f
5:24am 3 7 mph 1024.8mb 58f 39f
5:18am 3 6 mph 1024.8mb 58f 38f
5:12am 5 6 mph 1024.7mb 58f 39f
5:06am 3 7 mph 1024.8mb 58f 38f
5:00am 3 6 mph 1024.8mb 58f 38f
4:54am 3 7 mph 1024.8mb 58f 38f
4:48am 3 7 mph 1024.8mb 58f 38f
4:42am 3 8 mph 1024.8mb 58f 38f
4:36am 3 7 mph 1024.7mb 58f 38f
4:30am 3 8 mph 1024.7mb 58f 38f
4:24am 5 7 mph 1024.7mb 58f 37f
4:18am 3 7 mph 1024.7mb 58f 37f
4:12am 3 7 mph 1024.8mb 58f 37f
4:06am 5 7 mph 1024.7mb 58f 38f
4:00am 5 8 mph 1024.8mb 58f 38f
3:54am 5 8 mph 1024.8mb 58f 38f
3:48am 5 8 mph 1024.8mb 57f 38f
3:42am 5 9 mph 1024.8mb 57f 38f
3:36am 6 9 mph 1024.8mb 57f 38f
3:30am 6 9 mph 1024.8mb 57f 39f
3:24am 7 10 mph 1024.7mb 57f 39f
3:18am 6 9 mph 1024.6mb 57f 39f
3:12am 6 9 mph 1024.6mb 57f 39f
3:06am 6 8 mph 1024.7mb 57f 38f
3:00am 5 8 mph 1024.7mb 57f 38f
2:54am 6 8 mph 1024.7mb 57f 38f
2:48am 6 9 mph 1024.6mb 57f 37f
2:42am 5 7 mph 1024.6mb 57f 37f
2:36am 5 8 mph 1024.6mb 57f 38f
2:30am 5 8 mph 1024.5mb 57f 38f
2:24am 5 8 mph 1024.6mb 57f 38f
2:18am 5 9 mph 1024.6mb 57f 38f
2:12am 6 9 mph 1024.5mb 57f 38f
2:06am 6 8 mph 1024.7mb 57f 39f
2:00am 5 8 mph 1024.7mb 57f 38f
1:54am 6 8 mph 1024.7mb 57f 39f
1:48am 5 7 mph 1024.7mb 57f 38f
1:42am 3 6 mph 1024.6mb 57f 37f
1:36am 3 6 mph 1024.7mb 57f 36f
1:30am 3 6 mph 1024.7mb 57f 35f
1:24am 3 7 mph 1024.7mb 57f 35f
1:18am 5 7 mph 1024.8mb 57f 36f
1:12am 5 7 mph 1024.9mb 57f 36f
1:06am 3 6 mph 1024.9mb 57f 35f
1:00am 3 5 mph 1024.9mb 57f 34f
12:54am 2 5 mph 1025mb 57f 35f
12:48am 2 5 mph - 57f -
12:42am 2 3 mph - 56f -
12:36am 1 3 mph - 56f -
12:30am 2 5 mph 1024.8mb 56f 37f
12:24am 2 5 mph 1024.8mb 56f 36f
12:18am 2 5 mph 1024.8mb 56f 37f
12:12am 3 6 mph 1024.8mb 56f 38f
12:06am 3 6 mph 1024.8mb 56f 37f
12:00am 3 6 mph 1024.9mb 56f 37f
Fri 12/08 11:54pm 5 7 mph 1025mb 56f 38f
11:48pm 5 8 mph 1025mb 56f 37f
11:42pm 6 9 mph 1025.2mb 56f 37f
11:36pm 6 10 mph 1025.2mb 56f 37f
11:30pm  -  mph 1025.3mb 56f 37f
11:24pm  -  mph 1025.4mb 56f 35f
11:18pm  -  mph 1025.5mb 56f 35f
11:12pm  -  mph 1025.5mb 56f 34f
11:06pm  -  mph 1025.5mb 56f 35f
11:00pm  -  mph 1025.5mb 56f 35f
10:54pm  -  mph 1025.5mb 56f 35f
10:48pm  -  mph 1025.5mb 56f 35f
10:42pm  -  mph 1025.5mb 55f 35f
10:36pm  -  mph 1025.4mb 55f 35f
10:30pm 5 8 mph 1025.4mb 55f 36f
10:24pm 5 7 mph 1025.4mb 55f 36f
10:18pm  -  mph 1025.4mb 55f 37f
10:12pm  -  mph 1025.4mb 55f 36f
10:06pm  -  mph 1025.4mb 55f 36f
10:00pm 6 8 mph 1025.4mb 55f 35f
9:54pm 5 8 mph 1025.4mb 55f 34f
9:48pm  -  mph 1025.4mb 55f 34f
9:42pm  -  mph 1025.4mb 55f 34f
9:36pm  -  mph 1025.3mb 55f 34f
9:30pm 3 8 mph 1025.4mb 55f 35f
9:24pm 5 7 mph 1025.4mb 55f 34f
9:18pm 5 6 mph 1025.5mb 55f 33f
9:12pm 2 6 mph 1025.5mb 55f 33f
9:06pm 5 8 mph 1025.4mb 55f 34f
9:00pm  -  mph 1025.3mb 55f 36f
8:54pm  -  mph 1025.2mb 55f 37f
8:48pm  -  mph 1025.2mb 55f 37f
8:42pm  -  mph 1025.2mb 55f 37f
8:36pm  -  mph 1025.2mb 55f 35f
8:30pm 3 6 mph 1025.2mb 55f 34f
8:24pm 3 7 mph 1025.2mb 55f 35f
8:18pm 6 9 mph 1025.1mb 55f 35f
8:12pm 5 8 mph 1025mb 55f 35f
8:06pm 6 9 mph 1025mb 55f 35f
8:00pm  -  mph 1024.9mb 55f 35f
7:54pm  -  mph 1024.7mb 55f 35f
7:48pm 6 10 mph 1024.6mb 55f 36f
7:42pm 6 9 mph 1024.4mb 55f 37f
7:36pm 6 11 mph 1024.1mb 55f 36f
7:30pm 6 9 mph 1023.9mb 55f 37f
7:24pm 7 11 mph 1024mb 55f 36f
7:18pm 5 8 mph 1024mb 55f 36f
7:12pm  -  mph 1024mb 55f 36f
7:06pm  -  mph 1023.9mb 55f 36f
7:00pm 5 10 mph 1024mb 55f 37f
6:54pm 6 10 mph 1023.8mb 55f 37f
6:48pm 7 11 mph 1023.7mb 55f 37f
6:42pm 7 13 mph 1023.9mb 55f 37f
6:36pm 8 13 mph 1023.7mb 55f 38f
6:30pm  -  mph 1023.3mb 55f 37f
6:24pm  -  mph 1023.5mb 55f 37f
6:18pm  -  mph 1023.5mb 55f 37f
6:12pm  -  mph 1023.6mb 55f 37f
6:06pm  -  mph 1023.1mb 55f 37f
6:00pm 7 10 mph 1023mb 55f 37f
5:54pm 7 13 mph 1022.9mb 55f 37f
5:48pm 8 13 mph 1022.9mb 55f 37f
5:42pm 6 11 mph 1022.4mb 55f 37f
5:36pm 8 13 mph 1022.2mb 55f 38f
5:30pm 6 11 mph 1022.6mb 55f 37f
5:24pm 6 10 mph 1022.4mb 55f 38f
5:18pm 7 11 mph 1022.3mb 55f 38f
5:12pm 6 10 mph 1022.7mb 56f 38f
5:06pm 7 10 mph 1022.5mb 56f 38f
5:00pm 6 8 mph 1022.4mb 56f 38f
4:54pm 7 10 mph 1022.5mb 56f 38f
4:48pm 5 10 mph 1022.5mb 56f 38f
4:42pm 6 10 mph 1022.4mb 56f 38f
4:36pm 5 9 mph 1022.5mb 56f 38f
4:30pm 6 10 mph 1022.6mb 56f 38f
4:24pm 6 9 mph 1022.5mb 56f 38f
4:18pm 6 10 mph 1022.4mb 56f 38f
4:12pm 7 10 mph 1022.6mb 56f 38f
4:06pm 6 10 mph 1022.6mb 56f 38f
4:00pm  -  mph 1022.5mb 56f 39f
3:54pm  -  mph 1022.4mb 56f 39f
3:48pm  -  mph 1021.9mb 56f 39f
3:42pm  -  mph 1021.6mb 56f 39f
3:36pm  -  mph 1021.8mb 56f 38f
3:30pm  -  mph 1022mb 56f 38f
3:24pm  -  mph 1022.2mb 56f 39f
3:18pm  -  mph 1022.2mb 56f 39f
3:12pm  -  mph 1022.1mb 56f 38f
3:06pm  -  mph 1021.9mb 56f 38f
3:00pm  -  mph 1022.2mb 56f 38f
2:54pm  -  mph 1022.4mb 56f 38f
2:48pm  -  mph 1022.4mb 56f 38f
2:30pm 10 15 mph 1021.8mb 56f 38f
2:24pm 9 14 mph 1021.5mb 57f 39f
2:18pm  -  mph 1021.9mb 57f 38f
2:12pm  -  mph 1022.3mb 57f 38f
2:06pm  -  mph 1022.5mb 57f 38f
2:00pm 7 13 mph 1022.4mb 57f 39f
1:54pm 9 15 mph 1022.2mb 57f 38f
1:48pm 8 13 mph 1022.1mb 57f 38f
1:42pm 8 13 mph 1022.1mb 57f 38f
1:36pm 9 15 mph 1021.7mb 57f 38f
1:30pm 7 13 mph 1022.3mb 57f 38f
1:24pm 6 9 mph 1022.6mb 57f 37f
1:18pm  -  mph 1023.1mb 57f 37f
1:12pm  -  mph 1023.5mb 57f 37f
1:06pm  -  mph 1023.7mb 57f 37f
1:00pm 7 11 mph 1023.9mb 57f 38f
12:54pm 9 13 mph 1024.1mb 57f 38f
12:48pm  -  mph 1024mb 57f 38f
12:42pm  -  mph 1023.9mb 58f 38f
12:36pm  -  mph 1023.8mb 58f 38f